Showing default

UWE-4, 43880

Orbit data source: Space-Track

UWE-4, 43880 is a payload satellite owned by U Wurzburg (DE) in SSO that was launched on Thu, 27 Dec 2018 UTC via a SOYUZ-2-1A launch vehicle from the Vostochny Cosmodrome (VOSTO). Payloads include a variety of satellites, spacecraft, and rockets equipped with specific instruments for various scientific and technological missions. These include communications satellites like Starlink; space stations such as the ISS; scientific satellites like the Hubble; Earth observation satellites from companies like Planet Labs, Umbra, and HawkEye 360; GPS; miniature CubeSats for education and research; and military/defense satellites.

Loading next visibility...
UWE-4 details
Identifier
43880, 2018-111E
Orbit
SSO
Last TLE update7 hours ago
Origin
Flag of DEU Wurzburg (DE / GER)
ManufacturerU Wurzburg
MissionOperational Amateur Technology
Bus & MotorCUBESAT 1U, Unknown motor
Mass1 kg wet, 1 kg dry
Launch date (UTC)
2018-12-27 (6 years ago)
Launch vehicle
SOYUZ-2-1A
Launch site
Vostochny Cosmodrome (VOSTO)
Object type
Payload
Rocket body
Debris
Shape & HBRBox, 0.1 m
Radar Cross Section0.015 m², Small (<0.1 m²)

Expand to show TLE details & history

TLE from 7 hours ago
0 UWE-4
1 43880U 18111E   24361.47939237  .00023594  00000-0  11550-2 0  9992
2 43880  97.6001 266.7006 0016658  67.6646 292.6351 15.18057468326516
Epoch: 2024-12-26T11:30Z
Definitive object data (Epoch: 2024-12-26T11:30:19.5Z)
Latitude-0.00007°
Longitude-1.33884°
Altitude510.392 km
Speed7.611 km/s
True Right ascension17h 46m 48s
True Declination0° 00' 00"
Sunlit
Object was in daylight at TLE epoch
Visualization TLE readout
Latitude-14.04672°
Longitude177.05893°
Altitude524.572 km
Speed7.596 km/s
Apparent Right ascension05h 50m 10s
Apparent Declination-26° 20' 53"
Sunlit
Object is in full shadow
Visualization observer readout
Local Sidereal Time18:03:33
Azimuth12.616° NNE
Elevation-76.149°
Doppler factor1
Orbital elements
Apogee altitude520.161 km
Perigee altitude497.217 km
Semi-major axis6,886.826 km
Eccentricity0.0016658
Inclination97.6001°
RAAN266.7006°
Arg. of periapsis67.6646°
True anomaly292.45878°
Mean anomaly292.6351°
Eccentric anomaly292.54695°
Mean motion3.79765 °/min
BSTAR0.001155
Orbital period94.8 mins
Loading maneuver chart data...
Loading historical data...
Loading historical data...
Loading historical data...
Loading historical data...
Loading historical data...
Loading historical data...
Loading historical data...

UWE-4 Visibility forecast

Observer location: undefined°, undefined

Span
Click to sort rows by Start time (UTC) header in descending order
Start Az.
Max El. time (UTC)
Max El. Az.
Max El.
End time (UTC)
End Az.
6 mins2024-12-27 07:03:01.139Z0.419° NNE2024-12-27 07:06:01.139Z271.649° WNW39.509°2024-12-27 07:09:01.139Z208.239° SW
6 mins2024-12-27 17:42:01.139Z147.64° SSE2024-12-27 17:44:01.139Z107.355° ESE37.343°2024-12-27 17:48:01.139Z357.322° N
|